Location: Unspecified
(0.0000°N, 0.0000°E)
Time: 07:50:07
(UTC+00:00)

TIGRISAT - Visible Passes

Search period start: 26 October 2020 00:00
Search period end: 05 November 2020 00:00
Orbit: 606 x 688 km, 97.7° (Epoch: 25 October)

Date Brightness Start Highest point End Pass type
(mag) Time Alt. Az. Time Alt. Az. Time Alt. Az.
26 Oct ? 18:37:39 11° ESE 18:37:39 11° ESE 18:38:02 10° ESE visible
26 Oct ? 20:15:22 18° SW 20:15:22 18° SW 20:16:46 10° SW visible
27 Oct ? 19:03:28 22° SE 19:03:28 22° SE 19:05:40 10° SSE visible
28 Oct ? 19:29:18 33° SSE 19:29:18 33° SSE 19:31:52 10° S visible
29 Oct ? 19:55:09 28° SW 19:55:09 28° SW 19:57:22 10° SSW visible
30 Oct ? 18:43:16 13° ESE 18:43:16 13° ESE 18:44:28 10° SE visible
30 Oct ? 20:20:59 16° WSW 20:20:59 16° WSW 20:22:09 10° SW visible
31 Oct ? 19:09:05 25° SE 19:09:05 25° SE 19:11:32 10° SSE visible
01 Nov ? 19:34:55 36° S 19:34:55 36° S 19:37:33 10° S visible
02 Nov ? 20:00:44 26° SW 20:00:44 26° SW 20:02:54 10° SSW visible
03 Nov ? 18:48:51 16° ESE 18:48:51 16° ESE 18:50:38 10° SE visible
03 Nov ? 20:26:34 14° WSW 20:26:34 14° WSW 20:27:26 10° SW visible
04 Nov ? 19:14:40 30° SE 19:14:40 30° SE 19:17:21 10° S visible
